Back to catalog

ONEWEB-0540

AliveCommunicationsPO
NORAD 54645·PAYLOAD·🇬🇧 United Kingdom

Launched Dec 8, 2022 from Cape Canaveral Space Force Station

Loading…

Next Passes (next 24 hours)

TLE

FreshSource: CelesTrak SupGP

Epoch: Sep 14, 2026, 15:25 UTC

1 54645C 22166D   26257.64251574 -.00000322  00000+0 -78000-3 0  2570
2 54645  87.9270 226.1927 0002150  85.8293  23.0728 13.21821604    12

Track ONEWEB-0540 in real time with AllMySat

Download on the App Store